Flag for Poland Weather past 2 weeks in Gdynia, Poland

Now
64 °F

Passing clouds.


Feels Like: 64 °F
Forecast: 54 / 69 °F
Wind: 7 mph from Southeast

Location: Gdansk-Rebiechowo

Current Time: Sep 19, 2014 at 12:47:21 PM

Latest Report: Sep 19, 2014 at 12:00 PM


Visibility: N/A

Pressure: 30.04 "Hg

Humidity: 64%

Dew point: 52 °F

Location of GdyniaLocation

Historic Weather in Gdynia — Graph

°F

Gdynia temperature yesterday

Maximum temperature yesterday: 70 °F (at 2:00 PM)
Minimum temperature yesterday: 45 °F (at 5:00 AM)
Average temperature yesterday: 57 °F

Past Weeks' High & Low Weather Summary

 TemperatureHumidityPressure
High72 °F (Sep 5, 2:30 PM)100% (Sep 5, 6:30 AM)30.36 "Hg (Sep 5, 6:30 AM)
Low43 °F (Sep 6, 6:30 AM)33% (Sep 5, 5:00 PM)29.83 "Hg (Sep 10, 5:30 AM)
Average59 °F79%30.11 "Hg
* Reported Sep 4 11:00 AM — Sep 19 11:30 AM, Gdynia, Weather by CustomWeather, © 2014

Note: Actual official high and low records may vary slightly from our data, if they occured in-between our weather recording intervals... More about our weather records

Advertising

Gdynia weather history for previous 24 hours

 ConditionsComfort  
Time TempWeatherWind HumidityBarometerVisibility
11:30 AM
Sep 19
64 °FSunny.8 mph64%30.04 "Hg10 mi
11:00 AM63 °FPassing clouds.5 mph68%30.07 "HgN/A
10:30 AM61 °FPassing clouds.3 mph68%30.07 "HgN/A
10:00 AM57 °FPassing clouds.5 mph72%30.07 "HgN/A
9:30 AM57 °FPassing clouds.6 mph72%30.07 "HgN/A
9:00 AM55 °FPassing clouds.6 mph77%30.07 "HgN/A
8:30 AM55 °FPassing clouds.3 mph77%30.07 "HgN/A
8:00 AM54 °FSunny.3 mph82%30.07 "Hg10 mi
7:30 AM54 °FSunny.5 mph82%30.07 "Hg10 mi
7:00 AM54 °FClear.6 mph82%30.07 "Hg10 mi
6:30 AM52 °FClear.3 mph88%30.07 "Hg10 mi
6:00 AM50 °FClear.3 mph88%30.07 "Hg10 mi
5:30 AM50 °FClear.5 mph88%30.07 "Hg10 mi
5:00 AM52 °FClear.5 mph82%30.07 "Hg10 mi
4:30 AM52 °FClear.2 mph82%30.07 "Hg10 mi
4:00 AM52 °FClear.2 mph77%30.07 "Hg10 mi
3:30 AM54 °FClear.3 mph72%30.07 "Hg10 mi
3:00 AM54 °FClear.3 mph72%30.07 "Hg10 mi
2:30 AM54 °FClear.3 mph72%30.09 "Hg10 mi
2:00 AM54 °FClear.5 mph77%30.09 "Hg10 mi
1:30 AM54 °FClear.3 mph72%30.09 "Hg10 mi
1:00 AM55 °FClear.3 mph67%30.09 "Hg10 mi
12:30 AM55 °FClear.3 mph67%30.09 "Hg10 mi
12:00 AM57 °FClear.5 mph67%30.09 "Hg10 mi
11:30 PM
Sep 18
57 °FClear.6 mph67%30.09 "Hg10 mi
10:30 PM54 °FClear.7 mph72%30.09 "Hg10 mi
10:00 PM54 °FClear.6 mph72%30.09 "Hg10 mi
9:30 PM55 °FClear.6 mph67%30.09 "Hg10 mi
9:00 PM57 °FClear.7 mph63%30.09 "Hg10 mi
8:30 PM59 °FClear.6 mph59%30.09 "Hg10 mi
8:00 PM59 °FClear.6 mph59%30.09 "Hg10 mi
7:30 PM61 °FSunny.5 mph59%30.09 "Hg10 mi
7:00 PM63 °FSunny.3 mph56%30.09 "Hg10 mi
6:30 PM64 °FSunny.6 mph52%30.09 "Hg10 mi
6:00 PM68 °FSunny.6 mph46%30.09 "Hg10 mi
5:30 PM70 °FSunny.9 mph40%30.09 "Hg10 mi
5:00 PM70 °FSunny.12 mph40%30.09 "Hg10 mi
4:30 PM70 °FPassing clouds.10 mph40%30.09 "HgN/A
4:00 PM70 °FPassing clouds.10 mph43%30.09 "HgN/A
3:30 PM70 °FPassing clouds.13 mph40%30.12 "HgN/A
3:00 PM70 °FSunny.10 mph40%30.12 "Hg10 mi
2:30 PM70 °FPassing clouds.12 mph40%30.12 "HgN/A
2:00 PM70 °FPassing clouds.12 mph43%30.12 "HgN/A
1:30 PM66 °FPassing clouds.9 mph56%30.12 "HgN/A
1:00 PM66 °FSunny.12 mph56%30.15 "Hg10 mi
12:30 PM66 °FSunny.12 mph52%30.15 "Hg10 mi
12:00 PM64 °FSunny.12 mph56%30.15 "Hg10 mi
Weather by CustomWeather, © 2014

See weather overviewHow to use our weather pages